CZ-6A DEB

Satellite information

Favourite Embed

Satellite Type and Status

DEBRISIN ORBIT

Key statistics

Satellite CZ-6A DEB at a glance.

Uptime

1073

Days in orbit

Revolutions

≈ 14.2

Per day

Orbit

SSO

Sun Synchronous Orbit

Inclination

98.8

Latest

Satellite identification and parameters

Extended collection of information and parameters for CZ-6A DEB.

Object identification

Identified? True

Debris? True

Object name: CZ-6A DEB

International designator: 2022-151NT

Object number (NORAD): 54617

Object ID (CCSDS): 54617

Country: PEOPLES REPUBLIC OF CHINA (PRC)

Current information (Y/N): Y

RCS size: SMALL

Orbital parameters

Period: 101.485 minutes

Inclination: 98.8297 deg

SMA: 7207.109 km

Apoapsis: 847.074 km

Periapsis: 810.875 km

RAAN: 303.5757 deg

Eccentricy: 0.00251131

Argument of periapsis: 281.6228 deg

Mean anomaly: 78.2129 deg

Mean motion: 14.18930411 rev/day

Mean motion (dot): 0.00002961 rev/day2

B* drag term: 0.0014374338 1/REarth

Two-line elements (TLE)

Creation date: Oct. 19, 2025, 2:20 a.m.

Reference frame: TEME

Reference center: EARTH

Epoch: Oct. 18, 2025, 11:22 p.m. UTC

TLE line 0: 0 CZ-6A DEB

TLE line 1: 1 54617U 22151NT 25291.97423526 .00002961 00000-0 14374-2 0 9990

TLE line 2: 2 54617 98.8297 303.5757 0025113 281.6228 78.2129 14.18930411150387

Live tracking on map

Real-time ground track for satellite CZ-6A DEB.

In-orbit conjunctions

A list of the most updated potential collisions computed for object CZ-6A DEB.

Target Orbit TCA Probability of collision Miss distance Type
IRIDIUM 33 DEB LEO 2025-08-26 00:36:20 0.0001555326 154.0 (m) DEBRIS

Associated space launch

Chinese satellite reported for atmospheric/ocean/environmental/spatial parameter research purposes, details TBD.

CZ-6A DEB was lifted into orbit during the mission ‘Long March 6A | Yunhai 3’, on board a Long March 6A space rocket.

The launch took place on Nov. 11, 2022, 10:52 p.m. from Launch Complex 9A.

For more information about the launch, click the button.

Launch to space Long March 6A | Yunhai 3
Long March 6A | Yunhai 3

Agency: N/A

Status: Launch Successful

Launch date: Nov. 11, 2022, 10:52 p.m. UTC

Rocket: Long March 6A

Launch pad: Launch Complex 9A

Location: Taiyuan Satellite Launch Center, People's Republic of China

...

Latest news about this satellite

There are no fresh news available about this satellite. Check back as we update our databases every day.


Newsletter sign-up

Weekly statistics, charts and insights to help you stay on top of the space industry.